| time (UTC) | temp C | wind direction | speed KPH | gust KPH | rain 1hr cm | rain 24hr cm | rain mn cm | humidity % | barometer mb |
| 20260902123046 | 23 | 0 | 1.6 | 9.7 | 0.00 | 0.18 | 0.00 | 84 | 1015.7 |
| 20260902121540 | 23 | 0 | 1.6 | 11.3 | 0.00 | 0.18 | 0.00 | 86 | 1015.6 |
| 20260902120046 | 23 | 0 | 0.0 | 6.4 | 0.00 | 0.18 | 0.00 | 86 | 1015.2 |
| 20260902114552 | 23 | 293 | 0.0 | 9.7 | 0.00 | 0.18 | 0.00 | 84 | 1015.3 |
| 20260902113040 | 22 | 0 | 0.0 | 0.0 | 0.00 | 0.18 | 0.00 | 83 | 1014.9 |
| 20260902111550 | 22 | 0 | 0.0 | 0.0 | 0.00 | 0.18 | 0.00 | 83 | 1014.0 |
| 20260902110058 | 22 | 0 | 0.0 | 0.0 | 0.00 | 0.18 | 0.00 | 83 | 1013.9 |
| 20260902104543 | 22 | 0 | 0.0 | 0.0 | 0.00 | 0.18 | 0.00 | 83 | 1014.2 |
| 20260902103042 | 22 | 0 | 0.0 | 0.0 | 0.00 | 0.18 | 0.00 | 83 | 1014.1 |
| 20260902101543 | 22 | 0 | 0.0 | 0.0 | 0.00 | 0.18 | 0.00 | 83 | 1014.2 |
| 20260902100043 | 22 | 0 | 0.0 | 0.0 | 0.00 | 0.18 | 0.00 | 83 | 1014.3 |
| 20260902094545 | 23 | 0 | 0.0 | 0.0 | 0.00 | 0.18 | 0.00 | 83 | 1014.5 |
| 20260902093047 | 22 | 0 | 0.0 | 0.0 | 0.00 | 0.18 | 0.00 | 84 | 1014.4 |
| 20260902091541 | 22 | 0 | 0.0 | 0.0 | 0.00 | 0.18 | 0.00 | 84 | 1014.4 |
| 20260902090043 | 23 | 0 | 0.0 | 0.0 | 0.00 | 0.18 | 0.00 | 84 | 1014.1 |
| 20260902084556 | 23 | 0 | 0.0 | 0.0 | 0.00 | 0.18 | 0.00 | 85 | 1014.1 |
| 20260902083047 | 23 | 0 | 0.0 | 0.0 | 0.00 | 0.18 | 0.00 | 85 | 1014.3 |
| 20260902081545 | 23 | 0 | 0.0 | 0.0 | 0.00 | 0.18 | 0.00 | 85 | 1014.0 |
| 20260902080055 | 23 | 0 | 0.0 | 0.0 | 0.00 | 0.18 | 0.00 | 85 | 1013.8 |
| 20260902074546 | 23 | 0 | 0.0 | 0.0 | 0.00 | 0.18 | 0.00 | 86 | 1014.2 |
| 20260902073046 | 24 | 0 | 0.0 | 0.0 | 0.00 | 0.18 | 0.00 | 86 | 1014.1 |
| 20260902071542 | 24 | 0 | 0.0 | 3.2 | 0.00 | 0.18 | 0.00 | 86 | 1014.1 |
| 20260902070044 | 24 | 0 | 0.0 | 0.0 | 0.00 | 0.18 | 0.00 | 86 | 1014.1 |
| 20260902064540 | 24 | 0 | 0.0 | 0.0 | 0.00 | 0.18 | 0.00 | 86 | 1013.9 |
| 20260902063043 | 24 | 0 | 0.0 | 0.0 | 0.00 | 0.18 | 0.00 | 85 | 1013.9 |
| 20260902060048 | 24 | 0 | 0.0 | 0.0 | 0.00 | 0.18 | 0.00 | 85 | 1014.4 |
| 20260902054547 | 24 | 0 | 0.0 | 0.0 | 0.00 | 0.18 | 0.00 | 86 | 1014.4 |
| 20260902053041 | 24 | 0 | 0.0 | 0.0 | 0.00 | 0.18 | 0.00 | 86 | 1014.2 |
| 20260902051547 | 24 | 0 | 0.0 | 0.0 | 0.00 | 0.18 | 0.00 | 86 | 1014.0 |
| 20260902050042 | 25 | 0 | 0.0 | 0.0 | 0.00 | 0.18 | 0.00 | 86 | 1013.8 |
| 20260902044540 | 25 | 0 | 0.0 | 0.0 | 0.00 | 0.18 | 0.18 | 86 | 1014.1 |
| 20260902043057 | 25 | 0 | 0.0 | 0.0 | 0.00 | 0.18 | 0.18 | 87 | 1013.9 |
| 20260902041546 | 25 | 0 | 0.0 | 0.0 | 0.00 | 0.18 | 0.18 | 86 | 1014.0 |
| 20260902040044 | 25 | 215 | 0.0 | 1.6 | 0.00 | 0.18 | 0.18 | 86 | 1013.9 |
| 20260902034542 | 25 | 0 | 0.0 | 0.0 | 0.00 | 0.18 | 0.18 | 86 | 1013.6 |
| 20260902033057 | 25 | 0 | 0.0 | 1.6 | 0.00 | 0.18 | 0.18 | 86 | 1013.7 |
| 20260902031545 | 25 | 0 | 0.0 | 0.0 | 0.00 | 0.18 | 0.18 | 86 | 1014.0 |
| 20260902030042 | 25 | 0 | 0.0 | 0.0 | 0.00 | 0.18 | 0.18 | 86 | 1014.0 |
| 20260902024542 | 25 | 0 | 0.0 | 1.6 | 0.00 | 0.18 | 0.18 | 86 | 1014.1 |
| 20260902023049 | 25 | 0 | 0.0 | 0.0 | 0.00 | 0.18 | 0.18 | 87 | 1014.3 |
| 20260902021543 | 25 | 0 | 0.0 | 0.0 | 0.00 | 0.18 | 0.18 | 87 | 1014.4 |
| 20260902020042 | 25 | 0 | 0.0 | 0.0 | 0.00 | 0.18 | 0.18 | 87 | 1014.3 |
| 20260902014540 | 25 | 0 | 0.0 | 0.0 | 0.00 | 0.18 | 0.18 | 87 | 1014.3 |
| 20260902013044 | 25 | 0 | 0.0 | 0.0 | 0.00 | 0.18 | 0.18 | 87 | 1014.0 |
| 20260902011542 | 25 | 0 | 0.0 | 0.0 | 0.00 | 0.18 | 0.18 | 87 | 1014.0 |
| 20260902010046 | 25 | 0 | 0.0 | 0.0 | 0.00 | 0.18 | 0.18 | 87 | 1013.9 |
| 20260902004549 | 25 | 0 | 0.0 | 0.0 | 0.00 | 0.18 | 0.18 | 87 | 1013.7 |
| 20260902003048 | 26 | 0 | 0.0 | 0.0 | 0.00 | 0.18 | 0.18 | 86 | 1013.6 |
| 20260902001540 | 26 | 0 | 0.0 | 0.0 | 0.00 | 0.18 | 0.18 | 86 | 1013.7 |
| 20260902000051 | 26 | 0 | 0.0 | 1.6 | 0.00 | 0.18 | 0.18 | 86 | 1013.7 |
| 20260901234549 | 26 | 0 | 0.0 | 1.6 | 0.00 | 0.18 | 0.18 | 86 | 1013.6 |
| 20260901233046 | 26 | 0 | 0.0 | 0.0 | 0.00 | 0.18 | 0.18 | 85 | 1013.5 |
| 20260901231545 | 26 | 0 | 0.0 | 1.6 | 0.00 | 0.18 | 0.18 | 85 | 1013.0 |
| 20260901230046 | 26 | 0 | 0.0 | 1.6 | 0.03 | 0.18 | 0.18 | 84 | 1013.3 |
| 20260901224542 | 26 | 230 | 0.0 | 4.8 | 0.03 | 0.18 | 0.18 | 82 | 1013.7 |
| 20260901223043 | 26 | 250 | 1.6 | 6.4 | 0.03 | 0.18 | 0.18 | 81 | 1014.1 |
| 20260901221608 | 25 | 0 | 0.0 | 4.8 | 0.13 | 0.18 | 0.18 | 84 | 1013.9 |
| 20260901220056 | 25 | 283 | 0.0 | 8.0 | 0.10 | 0.15 | 0.15 | 83 | 1013.8 |
| 20260901214546 | 25 | 253 | 1.6 | 9.7 | 0.10 | 0.15 | 0.15 | 82 | 1013.9 |
| 20260901213103 | 25 | 251 | 0.0 | 9.7 | 0.10 | 0.15 | 0.15 | 82 | 1014.0 |
| 20260901211545 | 26 | 0 | 3.2 | 14.5 | 0.00 | 0.05 | 0.05 | 80 | 1014.0 |
| 20260901210041 | 26 | 259 | 4.8 | 16.1 | 0.05 | 0.05 | 0.05 | 82 | 1014.1 |
| 20260901204545 | 26 | 264 | 4.8 | 14.5 | 0.05 | 0.05 | 0.05 | 84 | 1013.9 |
| 20260901203055 | 27 | 264 | 1.6 | 8.0 | 0.05 | 0.05 | 0.05 | 84 | 1014.1 |
| 20260901201540 | 27 | 221 | 1.6 | 14.5 | 0.05 | 0.05 | 0.05 | 80 | 1014.3 |
| 20260901200050 | 28 | 267 | 8.0 | 19.3 | 0.00 | 0.00 | 0.00 | 76 | 1014.5 |
| 20260901194545 | 29 | 256 | 4.8 | 11.3 | 0.00 | 0.00 | 0.00 | 74 | 1013.9 |
| 20260901193057 | 30 | 224 | 4.8 | 17.7 | 0.00 | 0.00 | 0.00 | 72 | 1014.5 |
| 20260901191542 | 30 | 261 | 8.0 | 17.7 | 0.00 | 0.00 | 0.00 | 69 | 1014.6 |
| 20260901190041 | 30 | 258 | 11.3 | 19.3 | 0.00 | 0.00 | 0.00 | 69 | 1014.3 |
| 20260901184545 | 30 | 238 | 9.7 | 17.7 | 0.00 | 0.00 | 0.00 | 71 | 1014.3 |
| 20260901183042 | 30 | 239 | 8.0 | 17.7 | 0.00 | 0.00 | 0.00 | 71 | 1014.4 |
| 20260901181543 | 30 | 222 | 4.8 | 14.5 | 0.00 | 0.00 | 0.00 | 73 | 1014.2 |
| 20260901180044 | 30 | 240 | 6.4 | 14.5 | 0.00 | 0.00 | 0.00 | 73 | 1014.3 |
| 20260901174547 | 30 | 280 | 4.8 | 14.5 | 0.00 | 0.00 | 0.00 | 75 | 1014.3 |
| 20260901173046 | 29 | 205 | 6.4 | 16.1 | 0.00 | 0.00 | 0.00 | 78 | 1014.6 |
| 20260901171546 | 30 | 252 | 3.2 | 11.3 | 0.00 | 0.00 | 0.00 | 78 | 1014.7 |
| 20260901170047 | 29 | 242 | 1.6 | 12.9 | 0.00 | 0.00 | 0.00 | 79 | 1014.7 |
| 20260901164547 | 29 | 201 | 1.6 | 8.0 | 0.00 | 0.00 | 0.00 | 80 | 1014.8 |
| 20260901163043 | 28 | 248 | 1.6 | 6.4 | 0.00 | 0.00 | 0.00 | 80 | 1014.6 |
| 20260901161544 | 28 | 162 | 1.6 | 8.0 | 0.00 | 0.00 | 0.00 | 80 | 1014.9 |
| 20260901160046 | 28 | 226 | 1.6 | 6.4 | 0.00 | 0.00 | 0.00 | 79 | 1015.2 |
| 20260901154548 | 28 | 210 | 0.0 | 4.8 | 0.00 | 0.00 | 0.00 | 80 | 1015.0 |
| 20260901153055 | 28 | 254 | 0.0 | 3.2 | 0.00 | 0.00 | 0.00 | 79 | 1015.0 |
| 20260901151544 | 28 | 257 | 0.0 | 6.4 | 0.00 | 0.00 | 0.00 | 79 | 1014.8 |
| 20260901150050 | 27 | 247 | 3.2 | 6.4 | 0.00 | 0.00 | 0.00 | 81 | 1014.9 |
| 20260901144548 | 27 | 225 | 0.0 | 4.8 | 0.00 | 0.00 | 0.00 | 82 | 1015.0 |
| 20260901143053 | 27 | 266 | 1.6 | 6.4 | 0.00 | 0.00 | 0.00 | 83 | 1015.0 |
| 20260901141553 | 26 | 320 | 4.8 | 9.7 | 0.00 | 0.00 | 0.00 | 84 | 1015.1 |
| 20260901140045 | 26 | 247 | 4.8 | 8.0 | 0.00 | 0.00 | 0.00 | 84 | 1015.1 |
| 20260901134544 | 25 | 202 | 0.0 | 3.2 | 0.00 | 0.00 | 0.00 | 86 | 1015.0 |
| 20260901133043 | 25 | 213 | 0.0 | 8.0 | 0.00 | 0.00 | 0.00 | 86 | 1015.0 |
| 20260901131550 | 24 | 0 | 0.0 | 6.4 | 0.00 | 0.00 | 0.00 | 86 | 1014.9 |
| 20260901130045 | 23 | 0 | 0.0 | 1.6 | 0.00 | 0.00 | 0.00 | 87 | 1015.1 |
| 20260901124550 | 23 | 0 | 0.0 | 1.6 | 0.00 | 0.00 | 0.00 | 87 | 1015.0 |